Regional Weather Roundup
Issued by NWS Raleigh/Durham, NC

Home | Current Version | Previous Version | Text Only | Print | Product List | Glossary On
Versions: 1 2 3 4 5 6 7 8 9 10 11 12 13 14 15 16 17 18 19 20 21 22 23 24 25 26 27 28 29 30 31 32 33 34 35 36 37 38 39 40 41 42 43 44 45 46 47 48 49 50
000
ASUS42 KRAH 280910
RWRRAH
NORTH CAROLINA WEATHER ROUNDUP
NATIONAL WEATHER SERVICE RALEIGH NC
400 AM EST FRI NOV 28 2014

NOTE: "FAIR" INDICATES FEW OR NO CLOUDS BELOW 12,000 FEET WITH NO
SIGNIFICANT WEATHER AND/OR OBSTRUCTIONS TO VISIBILITY.

NCZ001-053-055-056-065-067-281000-
WESTERN NORTH CAROLINA

CITY           SKY/WX    TMP DP  RH WIND       PRES   REMARKS
ASHEVILLE      CLOUDY    27  14  58 N13G25    30.28S WCI  16
JEFFERSON      CLOUDY    22  13  67 NW13      30.18S WCI  10
MORGANTON      CLEAR     31  18  59 W3        30.35S
HICKORY        CLEAR     29  17  61 W3        30.30S
RUTHERFORDTON  PTCLDY    28  18  66 CALM      30.33R
MOUNT AIRY     CLOUDY    33  20  58 W5        30.30S WCI  29
BOONE          CLOUDY    22  14  70 NW10G21   30.20S WCI  11
$$

NCZ021-022-025-041-071-084-088-281000-
CENTRAL NORTH CAROLINA

CITY           SKY/WX    TMP DP  RH WIND       PRES   REMARKS
CHARLOTTE      CLEAR     29  20  69 NW7       30.33R WCI  22
GREENSBORO     CLEAR     27  18  69 W7        30.28S WCI  19
WINSTON-SALEM  CLEAR     31  17  56 W6        30.30S WCI  25
RALEIGH-DURHAM CLEAR     30  21  69 CALM      30.29S
FORT BRAGG     CLEAR     32  23  69 NW7       30.30R WCI  26
FAYETTEVILLE   CLEAR     34  23  64 NW12      30.30R WCI  25
BURLINGTON     CLEAR     32  17  54 NW5       30.28S WCI  27
LAURINBURG     CLEAR     32  23  69 N6        30.32R WCI  26
$$

NCZ011-015-027-028-043-044-047-080-103-281000-
NORTHEASTERN NORTH CAROLINA

CITY           SKY/WX    TMP DP  RH WIND       PRES   REMARKS
ROCKY MT-WILSO CLEAR     33  23  66 W5        30.28R WCI  29
GREENVILLE     CLEAR     32  27  80 CALM      30.27S
WASHINGTON     MOCLDY    32  28  82 NW3       30.25S
ELIZABETH CITY CLEAR     38  31  76 NW8       30.22R WCI  32
MANTEO         CLEAR     40  32  75 NW10G23   30.20R WCI  33
CAPE HATTERAS  CLEAR     41  32  70 N9G22     30.19R
$$

NCZ078-087-090-091-093-098-101-281000-
SOUTHEASTERN NORTH CAROLINA

CITY           SKY/WX    TMP DP  RH WIND       PRES   REMARKS
LUMBERTON      CLEAR     34  25  69 NW8       30.31R WCI  27
GOLDSBORO      CLEAR     33  30  86 NW8       30.27R WCI  27
KINSTON        CLEAR     34  25  68 NW6       30.28R WCI  29
KENANSVILLE    CLEAR     33  28  82 NW6       30.29S WCI  28
NEW BERN       PTCLDY    36  26  67 NW7       30.26R WCI  30
CHERRY POINT   CLEAR     37  25  61 NW15      30.25R WCI  28
BEAUFORT       CLEAR     38  28  67 N15       30.25R WCI  29
JACKSONVILLE   MOCLDY    34  26  72 NW8       30.27R WCI  27
WILMINGTON     CLEAR     34  30  85 N5        30.27S WCI  30
$$



USA.gov is the U.S. government's official web portal to all federal, state and local government web resources and services.